Flag for U.S.A. Weather past 2 weeks in Cheyenne, Wyoming, U.S.A.

Now
57 °F

Partly sunny.


Feels Like: 53 °F
Forecast: 42 / 54 °F
Wind: 16 mph from North

Location: Cheyenne Airport

Current Time: May 25, 2015 at 5:54:49 PM

Latest Report: May 25, 2015 at 4:53 PM


Visibility: 10 mi

Pressure: 29.81 "Hg

Humidity: 49%

Dew point: 38 °F

Location of CheyenneLocation

Historic Weather in Cheyenne — Graph

°F

Cheyenne temperature yesterday

Maximum temperature yesterday: 57 °F (at 1:53 PM)
Minimum temperature yesterday: 37 °F (at 5:53 AM)
Average temperature yesterday: 48 °F

Past Weeks' High & Low Weather Summary

 TemperatureHumidityPressure
High69 °F (May 14, 1:53 PM)100% (May 21, 4:53 AM)30.31 "Hg (May 21, 4:53 AM)
Low26 °F (May 11, 4:53 AM)24% (May 14, 1:53 PM)29.53 "Hg (May 16, 12:53 PM)
Average46 °F74%29.95 "Hg
* Reported May 10 4:53 PM — May 25 4:53 PM, Cheyenne, Weather by CustomWeather, © 2015

Note: Actual official high and low records may vary slightly from our data, if they occured in-between our weather recording intervals... More about our weather records

Advertising

Cheyenne weather history for previous 24 hours

 ConditionsComfort  
Time TempWeatherWind HumidityBarometerVisibility
4:53 PM
Mon, May 25
57 °FPartly sunny.16 mph49%29.81 "Hg10 mi
3:53 PM57 °FPartly sunny.15 mph58%29.80 "Hg10 mi
2:53 PM54 °FPassing clouds.14 mph62%29.82 "Hg10 mi
1:53 PM52 °FScattered clouds.13 mph75%29.83 "Hg10 mi
12:53 PM50 °FRain. Mostly cloudy.15 mph71%29.83 "Hg4 mi
11:53 AM53 °FMostly cloudy.20 mph59%29.80 "Hg10 mi
10:53 AM51 °FMore clouds than sun.14 mph69%29.81 "Hg10 mi
9:53 AM49 °FOvercast.16 mph71%29.82 "Hg10 mi
8:53 AM48 °FMore clouds than sun.14 mph74%29.80 "Hg10 mi
7:53 AM46 °FLight rain. Overcast.8 mph83%29.79 "Hg10 mi
6:53 AM44 °FLight rain. More clouds than sun.6 mph85%29.79 "Hg10 mi
6:00 AM44 °FLight rain. Overcast.6 mph89%29.89 "Hg10 mi
4:53 AM44 °FMostly cloudy.6 mph89%29.75 "Hg10 mi
3:53 AM44 °FLight rain. Mostly cloudy.9 mph89%29.78 "Hg7 mi
2:53 AM44 °FLight rain. Mostly cloudy.8 mph89%29.77 "Hg10 mi
1:53 AM44 °FLight rain. Mostly cloudy.8 mph89%29.74 "Hg10 mi
12:53 AM45 °FRain. Fog.9 mph86%29.76 "Hg5 mi
11:53 PM
Sun, May 24
45 °FPassing clouds.8 mph80%29.76 "Hg10 mi
10:53 PM45 °FPassing clouds.6 mph76%29.76 "Hg10 mi
9:53 PM45 °FPassing clouds.5 mph80%29.75 "Hg10 mi
8:53 PM47 °FPassing clouds.3 mph74%29.75 "Hg10 mi
7:53 PM49 °FScattered clouds.9 mph74%29.77 "Hg10 mi
6:53 PM50 °FOvercast.7 mph68%29.78 "Hg10 mi
5:53 PM53 °FSunny.8 mph64%29.76 "Hg10 mi
Weather by CustomWeather, © 2015

See weather overviewHow to use our weather pages